Location: Unspecified
(49.2170°N, 0.0000°E)
Time: 19:00:22
(UTC+00:00)

A-11 Canister half - Pass Details

Date: 23 January 2021
Orbit: 1516 x 1684 km, 47.2° (Epoch: 05 March)

Event Time Altitude Azimuth Distance (km) Brightness Sun altitude
Rises 19:18:39 0° 203° (SSW) 4,756 11.9 -25.2°
Reaches altitude 10° 19:22:14 10° 193° (SSW) 3,750 11.2 -25.8°
Enters shadow 19:29:33 30° 142° (SE) 2,492 9.7 -27.0°
